APX641 LEIB-LPPR

Flight info

Callsign APX641
Flight time 1h 28m
Altitude 31000
Route XOSTA M134 NINOT/N0413F330 M134 VLC/N0331F130 N733 CJN DCT PALIO DCT AKOKI DCT GOTOR DCT TLD/N0416F330 Z405 BARDI/N0415F320 DCT PESUL
Aircraft C25B/M-SDE2E3FGHRWXY/LB1

Departure

Time 2026-05-05 11:50
Airport Ibiza Airport (LEIB)

Arrival

Time 2026-05-05 13:18
Airport Francisco de Sá Carneiro Airport (LPPR)
Time Latitude Longitude Altitude Speed Heading
2026-05-05 11:39 38.87704 1.37658 3 ft 0 kts 332°
2026-05-05 11:47 38.87706 1.37651 3 ft 3 kts 253°
2026-05-05 11:47 38.87681 1.37670 3 ft 5 kts 118°
2026-05-05 11:47 38.87708 1.37748 3 ft 17 kts 62°
2026-05-05 11:47 38.87775 1.37909 3 ft 23 kts 62°
2026-05-05 11:48 38.87836 1.38115 3 ft 6 kts 156°
2026-05-05 11:48 38.87818 1.38151 3 ft 7 kts 63°
2026-05-05 11:48 38.87793 1.38200 3 ft 8 kts 160°
2026-05-05 11:49 38.87739 1.38235 2 ft 10 kts 150°
2026-05-05 11:49 38.87679 1.38260 1 ft 8 kts 227°
2026-05-05 11:49 38.87621 1.38126 2 ft 50 kts 242°
2026-05-05 11:49 38.87285 1.37294 99 ft 148 kts 243°
2026-05-05 11:50 38.86732 1.35920 761 ft 196 kts 242°
2026-05-05 11:50 38.86075 1.34224 1711 ft 224 kts 243°
2026-05-05 11:50 38.85373 1.32432 2789 ft 227 kts 243°
2026-05-05 11:50 38.84668 1.30600 3784 ft 231 kts 244°
2026-05-05 11:51 38.83952 1.28746 4787 ft 233 kts 242°
2026-05-05 11:51 38.83218 1.26895 5786 ft 233 kts 244°
2026-05-05 11:51 38.82762 1.24947 6737 ft 233 kts 264°
2026-05-05 11:51 38.82772 1.22879 7699 ft 232 kts 277°
2026-05-05 11:52 38.82991 1.20839 8649 ft 230 kts 276°
2026-05-05 11:52 38.83176 1.18807 9578 ft 228 kts 276°
2026-05-05 11:52 38.83370 1.16778 10375 ft 234 kts 276°
2026-05-05 11:52 38.83838 1.14678 10630 ft 260 kts 298°
2026-05-05 11:53 38.84914 1.12789 11309 ft 264 kts 311°
2026-05-05 11:53 38.86188 1.11070 12016 ft 267 kts 313°
2026-05-05 11:53 38.87485 1.09342 12682 ft 271 kts 313°
2026-05-05 11:53 38.88824 1.07535 12917 ft 291 kts 313°
2026-05-05 11:54 38.90271 1.05556 12977 ft 314 kts 313°
2026-05-05 11:54 38.91782 1.03521 13521 ft 315 kts 313°
2026-05-05 11:54 38.93293 1.01459 14025 ft 318 kts 313°
2026-05-05 11:54 38.94825 0.99388 14505 ft 321 kts 313°
2026-05-05 11:55 38.96364 0.97290 14971 ft 324 kts 313°
2026-05-05 11:55 38.97920 0.95178 15417 ft 327 kts 313°
2026-05-05 11:55 38.99469 0.93070 15846 ft 329 kts 313°
2026-05-05 11:55 39.01047 0.90919 16258 ft 332 kts 313°
2026-05-05 11:56 39.02640 0.88754 16659 ft 334 kts 313°
2026-05-05 11:56 39.04238 0.86566 17041 ft 337 kts 313°
2026-05-05 11:56 39.05855 0.84370 17414 ft 339 kts 313°
2026-05-05 11:56 39.07474 0.82149 17770 ft 341 kts 313°
2026-05-05 11:57 39.09115 0.79918 18115 ft 344 kts 313°
2026-05-05 11:57 39.10757 0.77661 18444 ft 346 kts 313°
2026-05-05 11:57 39.12398 0.75386 18748 ft 348 kts 310°
2026-05-05 11:57 39.13671 0.72732 19028 ft 349 kts 296°
2026-05-05 11:58 39.14595 0.69837 19312 ft 351 kts 290°
2026-05-05 11:58 39.15456 0.66884 19739 ft 353 kts 290°
2026-05-05 11:58 39.16308 0.63955 20017 ft 355 kts 290°
2026-05-05 11:58 39.17191 0.60962 20249 ft 357 kts 290°
2026-05-05 11:59 39.18071 0.57965 20497 ft 358 kts 290°
2026-05-05 11:59 39.18951 0.54951 20738 ft 360 kts 290°
2026-05-05 11:59 39.19839 0.51919 20977 ft 362 kts 290°
2026-05-05 11:59 39.20725 0.48874 21202 ft 363 kts 290°
2026-05-05 12:00 39.21619 0.45824 21477 ft 363 kts 290°
2026-05-05 12:00 39.22500 0.42783 21851 ft 360 kts 290°
2026-05-05 12:00 39.23381 0.39776 22224 ft 357 kts 290°
2026-05-05 12:00 39.24244 0.36786 22595 ft 355 kts 290°
2026-05-05 12:01 39.25112 0.33819 22965 ft 352 kts 290°
2026-05-05 12:01 39.25963 0.30866 23334 ft 350 kts 290°
2026-05-05 12:01 39.26819 0.27929 23704 ft 348 kts 290°
2026-05-05 12:01 39.27650 0.25043 24069 ft 346 kts 290°
2026-05-05 12:02 39.28494 0.22136 24438 ft 344 kts 290°
2026-05-05 12:02 39.29326 0.19241 24808 ft 343 kts 290°
2026-05-05 12:02 39.30159 0.16369 25176 ft 341 kts 290°
2026-05-05 12:02 39.30980 0.13508 25545 ft 339 kts 290°
2026-05-05 12:03 39.31802 0.10664 25913 ft 337 kts 290°
2026-05-05 12:03 39.32615 0.07825 26282 ft 336 kts 290°
2026-05-05 12:03 39.33427 0.05008 26650 ft 334 kts 290°
2026-05-05 12:03 39.34231 0.02196 27018 ft 332 kts 290°
2026-05-05 12:04 39.35023 -0.00556 27381 ft 331 kts 290°
2026-05-05 12:04 39.35815 -0.03335 27749 ft 329 kts 290°
2026-05-05 12:04 39.36609 -0.06103 28117 ft 327 kts 290°
2026-05-05 12:04 39.37393 -0.08858 28484 ft 325 kts 290°
2026-05-05 12:05 39.38176 -0.11598 28852 ft 323 kts 289°
2026-05-05 12:05 39.38951 -0.14323 29219 ft 322 kts 290°
2026-05-05 12:05 39.39723 -0.17033 29586 ft 320 kts 289°
2026-05-05 12:05 39.40488 -0.19723 29953 ft 318 kts 290°
2026-05-05 12:06 39.41246 -0.22397 30318 ft 316 kts 289°
2026-05-05 12:06 39.41992 -0.25018 30679 ft 314 kts 290°
2026-05-05 12:06 39.42739 -0.27664 31045 ft 312 kts 289°
2026-05-05 12:06 39.43484 -0.30286 31409 ft 310 kts 289°
2026-05-05 12:07 39.44220 -0.32897 31775 ft 308 kts 289°
2026-05-05 12:07 39.44964 -0.35522 32142 ft 313 kts 289°
2026-05-05 12:07 39.45720 -0.38204 32516 ft 320 kts 290°
2026-05-05 12:07 39.46489 -0.40931 32893 ft 325 kts 289°
2026-05-05 12:08 39.47279 -0.43733 33001 ft 340 kts 289°
2026-05-05 12:08 39.48104 -0.46674 33013 ft 355 kts 289°
2026-05-05 12:08 39.49127 -0.49650 33016 ft 369 kts 299°
2026-05-05 12:08 39.50437 -0.52537 33012 ft 383 kts 300°
2026-05-05 12:09 39.51796 -0.55562 33012 ft 394 kts 300°
2026-05-05 12:09 39.53170 -0.58692 33012 ft 405 kts 299°
2026-05-05 12:09 39.56027 -0.65169 33013 ft 422 kts 299°
2026-05-05 12:10 39.58995 -0.71888 33011 ft 433 kts 299°
2026-05-05 12:10 39.60462 -0.75235 33009 ft 421 kts 299°
2026-05-05 12:10 39.61897 -0.78492 33010 ft 410 kts 299°
2026-05-05 12:11 39.64750 -0.84993 33010 ft 422 kts 299°
2026-05-05 12:11 39.67194 -0.90567 33011 ft 433 kts 299°
2026-05-05 12:12 39.70202 -0.97446 33012 ft 442 kts 299°
2026-05-05 12:12 39.73228 -1.04395 33011 ft 442 kts 299°
2026-05-05 12:13 39.76253 -1.11368 33011 ft 443 kts 299°
2026-05-05 12:13 39.79305 -1.18331 33011 ft 444 kts 299°
2026-05-05 12:14 39.82342 -1.25326 33012 ft 444 kts 299°
2026-05-05 12:14 39.85353 -1.32286 33010 ft 444 kts 299°
2026-05-05 12:15 39.88381 -1.39292 33011 ft 444 kts 299°
2026-05-05 12:15 39.91410 -1.46326 33012 ft 444 kts 299°
2026-05-05 12:16 39.94431 -1.53357 33010 ft 444 kts 299°
2026-05-05 12:16 39.97444 -1.60381 33010 ft 444 kts 299°
2026-05-05 12:17 40.00463 -1.67431 33010 ft 444 kts 298°
2026-05-05 12:17 40.03454 -1.74436 33011 ft 445 kts 299°
2026-05-05 12:18 40.06460 -1.81487 33011 ft 445 kts 298°
2026-05-05 12:18 40.09460 -1.88546 33011 ft 445 kts 298°
2026-05-05 12:19 40.12456 -1.95613 33011 ft 445 kts 298°
2026-05-05 12:19 40.15452 -2.02691 33009 ft 445 kts 298°
2026-05-05 12:20 40.18473 -2.09757 33009 ft 445 kts 298°
2026-05-05 12:20 40.21479 -2.16830 33009 ft 445 kts 298°
2026-05-05 12:21 40.24453 -2.23927 33010 ft 445 kts 298°
2026-05-05 12:21 40.27429 -2.31024 33010 ft 445 kts 298°
2026-05-05 12:22 40.30401 -2.38135 33010 ft 445 kts 298°
2026-05-05 12:22 40.33349 -2.45204 33010 ft 445 kts 298°
2026-05-05 12:23 40.35540 -2.52744 32996 ft 444 kts 281°
2026-05-05 12:23 40.35681 -2.60791 32991 ft 443 kts 261°
2026-05-05 12:24 40.34141 -2.68601 32995 ft 442 kts 254°
2026-05-05 12:24 40.32460 -2.76354 32998 ft 442 kts 254°
2026-05-05 12:25 40.30780 -2.84060 33000 ft 442 kts 254°
2026-05-05 12:25 40.29082 -2.91823 33000 ft 443 kts 254°
2026-05-05 12:26 40.27381 -2.99569 33001 ft 443 kts 254°
2026-05-05 12:26 40.25672 -3.07324 33001 ft 443 kts 253°
2026-05-05 12:27 40.23956 -3.15060 33002 ft 443 kts 253°
2026-05-05 12:27 40.22244 -3.22757 33002 ft 443 kts 253°
2026-05-05 12:28 40.20524 -3.30490 33002 ft 443 kts 253°
2026-05-05 12:28 40.18796 -3.38228 33002 ft 443 kts 253°
2026-05-05 12:29 40.17061 -3.45967 33002 ft 443 kts 253°
2026-05-05 12:29 40.15326 -3.53685 33003 ft 443 kts 253°
2026-05-05 12:30 40.13592 -3.61364 33003 ft 443 kts 253°
2026-05-05 12:30 40.11845 -3.69084 33003 ft 443 kts 253°
2026-05-05 12:31 40.10091 -3.76799 33003 ft 443 kts 253°
2026-05-05 12:31 40.08331 -3.84501 33623 ft 442 kts 254°
2026-05-05 12:32 40.07454 -3.88354 33506 ft 441 kts 254°
2026-05-05 12:32 40.06598 -3.92069 33384 ft 409 kts 254°
2026-05-05 12:32 40.05814 -3.95479 33248 ft 377 kts 254°
2026-05-05 12:32 40.05085 -3.98646 33104 ft 354 kts 254°
2026-05-05 12:33 40.04383 -4.01706 32998 ft 351 kts 254°
2026-05-05 12:33 40.03680 -4.04750 32985 ft 350 kts 254°
2026-05-05 12:33 40.02284 -4.10790 32985 ft 349 kts 254°
2026-05-05 12:34 40.00879 -4.16857 32987 ft 349 kts 254°
2026-05-05 12:34 39.99472 -4.22912 32985 ft 348 kts 254°
2026-05-05 12:35 39.98403 -4.29052 32989 ft 348 kts 262°
2026-05-05 12:35 39.98400 -4.35354 32988 ft 350 kts 274°
2026-05-05 12:36 39.99511 -4.41561 32989 ft 355 kts 284°
2026-05-05 12:36 40.01417 -4.47534 32992 ft 357 kts 287°
2026-05-05 12:37 40.03323 -4.53518 32993 ft 357 kts 287°
2026-05-05 12:37 40.05249 -4.59491 32999 ft 357 kts 288°
2026-05-05 12:38 40.07166 -4.65481 33000 ft 357 kts 288°
2026-05-05 12:38 40.09076 -4.71450 33000 ft 356 kts 288°
2026-05-05 12:39 40.10985 -4.77429 33004 ft 356 kts 288°
2026-05-05 12:39 40.12891 -4.83416 33003 ft 357 kts 288°
2026-05-05 12:40 40.14782 -4.89367 33006 ft 357 kts 288°
2026-05-05 12:40 40.16688 -4.95377 33017 ft 358 kts 288°
2026-05-05 12:41 40.18596 -5.01406 33013 ft 359 kts 289°
2026-05-05 12:41 40.20501 -5.07436 33017 ft 359 kts 289°
2026-05-05 12:42 40.22402 -5.13478 33015 ft 359 kts 289°
2026-05-05 12:42 40.24297 -5.19517 33020 ft 359 kts 289°
2026-05-05 12:43 40.26192 -5.25566 33021 ft 359 kts 289°
2026-05-05 12:43 40.28087 -5.31615 33020 ft 359 kts 289°
2026-05-05 12:44 40.29964 -5.37625 33017 ft 359 kts 289°
2026-05-05 12:44 40.31850 -5.43686 33017 ft 360 kts 289°
2026-05-05 12:45 40.33736 -5.49750 33016 ft 359 kts 289°
2026-05-05 12:45 40.35622 -5.55832 33026 ft 361 kts 290°
2026-05-05 12:46 40.37510 -5.61937 33025 ft 361 kts 290°
2026-05-05 12:46 40.39401 -5.68064 33027 ft 362 kts 290°
2026-05-05 12:47 40.41290 -5.74200 33016 ft 363 kts 290°
2026-05-05 12:47 40.43182 -5.80351 33021 ft 364 kts 290°
2026-05-05 12:48 40.45068 -5.86508 33021 ft 364 kts 290°
2026-05-05 12:48 40.46953 -5.92668 33023 ft 364 kts 290°
2026-05-05 12:49 40.48823 -5.98800 33028 ft 364 kts 290°
2026-05-05 12:49 40.50703 -6.04975 33030 ft 364 kts 290°
2026-05-05 12:50 40.52578 -6.11149 33028 ft 363 kts 290°
2026-05-05 12:50 40.54441 -6.17304 33030 ft 362 kts 290°
2026-05-05 12:51 40.56300 -6.23445 33031 ft 361 kts 290°
2026-05-05 12:51 40.58139 -6.29594 33038 ft 360 kts 289°
2026-05-05 12:52 40.59331 -6.35946 33036 ft 360 kts 283°
2026-05-05 12:52 40.60448 -6.42364 33042 ft 360 kts 283°
2026-05-05 12:53 40.61547 -6.48798 33041 ft 360 kts 284°
2026-05-05 12:53 40.62646 -6.55218 33050 ft 359 kts 283°
2026-05-05 12:54 40.64285 -6.64819 33050 ft 358 kts 284°
2026-05-05 12:55 40.65370 -6.71226 33052 ft 358 kts 284°
2026-05-05 12:55 40.66452 -6.77623 33053 ft 358 kts 284°
2026-05-05 12:56 40.67522 -6.83988 33052 ft 357 kts 283°
2026-05-05 12:56 40.68594 -6.90356 33055 ft 355 kts 284°
2026-05-05 12:57 40.69656 -6.96699 33062 ft 354 kts 284°
2026-05-05 12:57 40.70711 -7.03032 33067 ft 354 kts 284°
2026-05-05 12:58 40.71767 -7.09392 33016 ft 356 kts 284°
2026-05-05 12:58 40.72293 -7.12585 32468 ft 355 kts 284°
2026-05-05 12:58 40.72817 -7.15745 31896 ft 351 kts 284°
2026-05-05 12:58 40.73330 -7.18880 31322 ft 347 kts 284°
2026-05-05 12:59 40.73844 -7.21976 30733 ft 344 kts 285°
2026-05-05 12:59 40.74178 -7.24015 30396 ft 341 kts 285°
2026-05-05 12:59 40.74678 -7.27062 29807 ft 337 kts 285°
2026-05-05 13:00 40.75655 -7.33025 28721 ft 328 kts 286°
2026-05-05 13:00 40.76133 -7.35950 28191 ft 324 kts 286°
2026-05-05 13:01 40.77534 -7.44566 26634 ft 317 kts 286°
2026-05-05 13:01 40.77996 -7.47404 26117 ft 316 kts 286°
2026-05-05 13:01 40.78454 -7.50232 25609 ft 315 kts 286°
2026-05-05 13:01 40.78911 -7.53051 25094 ft 314 kts 286°
2026-05-05 13:02 40.79364 -7.55871 24588 ft 313 kts 286°
2026-05-05 13:02 40.79821 -7.58683 24078 ft 313 kts 286°
2026-05-05 13:02 40.80266 -7.61486 23544 ft 311 kts 287°
2026-05-05 13:02 40.80712 -7.64226 23037 ft 308 kts 288°
2026-05-05 13:03 40.81153 -7.66979 22539 ft 306 kts 287°
2026-05-05 13:03 40.81586 -7.69712 22049 ft 303 kts 287°
2026-05-05 13:03 40.82026 -7.72430 21557 ft 303 kts 287°
2026-05-05 13:03 40.82458 -7.75147 21067 ft 302 kts 287°
2026-05-05 13:04 40.82895 -7.77865 20574 ft 303 kts 286°
2026-05-05 13:04 40.83323 -7.80597 20073 ft 304 kts 286°
2026-05-05 13:04 40.83765 -7.83336 19585 ft 306 kts 285°
2026-05-05 13:04 40.84199 -7.86100 19087 ft 308 kts 285°
2026-05-05 13:05 40.84644 -7.88879 18589 ft 310 kts 285°
2026-05-05 13:05 40.85080 -7.91678 18060 ft 312 kts 284°
2026-05-05 13:05 40.85528 -7.94488 17544 ft 312 kts 284°
2026-05-05 13:05 40.85968 -7.97294 17044 ft 313 kts 284°
2026-05-05 13:06 40.86411 -8.00114 16533 ft 313 kts 284°
2026-05-05 13:06 40.86856 -8.02938 16022 ft 315 kts 284°
2026-05-05 13:06 40.87293 -8.05736 15520 ft 315 kts 284°
2026-05-05 13:06 40.87740 -8.08577 15011 ft 316 kts 284°
2026-05-05 13:07 40.88187 -8.11430 14494 ft 317 kts 284°
2026-05-05 13:07 40.88760 -8.14231 13983 ft 316 kts 288°
2026-05-05 13:07 40.89355 -8.17033 13442 ft 317 kts 287°
2026-05-05 13:07 40.89930 -8.19842 12931 ft 316 kts 287°
2026-05-05 13:08 40.90508 -8.22632 12417 ft 315 kts 287°
2026-05-05 13:08 40.91078 -8.25436 11896 ft 316 kts 287°
2026-05-05 13:08 40.91665 -8.28233 11381 ft 314 kts 287°
2026-05-05 13:08 40.92219 -8.30941 10855 ft 296 kts 287°
2026-05-05 13:09 40.92749 -8.33503 10372 ft 281 kts 287°
2026-05-05 13:09 40.93243 -8.35947 9912 ft 269 kts 287°
2026-05-05 13:09 40.93734 -8.38282 9464 ft 258 kts 288°
2026-05-05 13:09 40.94191 -8.40530 9051 ft 249 kts 287°
2026-05-05 13:10 40.94642 -8.42726 8661 ft 247 kts 288°
2026-05-05 13:10 40.95091 -8.44923 8284 ft 247 kts 287°
2026-05-05 13:10 40.95545 -8.47124 7826 ft 250 kts 288°
2026-05-05 13:10 40.95998 -8.49351 7410 ft 250 kts 287°
2026-05-05 13:11 40.96450 -8.51573 7013 ft 250 kts 287°
2026-05-05 13:11 40.96906 -8.53785 6626 ft 249 kts 287°
2026-05-05 13:11 40.97350 -8.56010 6220 ft 249 kts 287°
2026-05-05 13:11 40.98041 -8.58056 5826 ft 248 kts 304°
2026-05-05 13:12 40.99096 -8.59851 5440 ft 246 kts 314°
2026-05-05 13:12 41.00460 -8.61206 5057 ft 245 kts 328°
2026-05-05 13:12 41.01992 -8.62110 4669 ft 240 kts 343°
2026-05-05 13:12 41.03611 -8.62549 4297 ft 235 kts 347°
2026-05-05 13:13 41.05197 -8.63001 3928 ft 232 kts 347°
2026-05-05 13:13 41.06770 -8.63413 3588 ft 230 kts 348°
2026-05-05 13:13 41.08309 -8.63814 3280 ft 221 kts 348°
2026-05-05 13:13 41.09782 -8.64188 2985 ft 206 kts 347°
2026-05-05 13:14 41.11131 -8.64544 2709 ft 189 kts 347°
2026-05-05 13:14 41.12376 -8.64868 2454 ft 173 kts 347°
2026-05-05 13:14 41.13472 -8.65155 2223 ft 150 kts 347°
2026-05-05 13:14 41.14423 -8.65402 2040 ft 125 kts 346°
2026-05-05 13:15 41.15211 -8.65608 1865 ft 108 kts 345°
2026-05-05 13:15 41.15910 -8.65796 1711 ft 99 kts 342°
2026-05-05 13:15 41.16585 -8.65971 1569 ft 101 kts 348°
2026-05-05 13:15 41.17284 -8.66150 1435 ft 104 kts 342°
2026-05-05 13:16 41.18009 -8.66353 1297 ft 109 kts 348°
2026-05-05 13:16 41.18759 -8.66538 1157 ft 111 kts 343°
2026-05-05 13:16 41.19510 -8.66735 1000 ft 110 kts 346°
2026-05-05 13:16 41.20248 -8.66921 863 ft 107 kts 343°
2026-05-05 13:17 41.20968 -8.67121 735 ft 105 kts 343°
2026-05-05 13:17 41.21706 -8.67317 593 ft 108 kts 346°
2026-05-05 13:17 41.22437 -8.67505 433 ft 106 kts 346°
2026-05-05 13:17 41.23148 -8.67688 311 ft 103 kts 347°
2026-05-05 13:18 41.23826 -8.67868 221 ft 94 kts 345°
2026-05-05 13:18 41.24305 -8.67995 207 ft 47 kts 349°
2026-05-05 13:18 41.24608 -8.68074 199 ft 34 kts 349°
2026-05-05 13:18 41.24749 -8.68122 195 ft 17 kts 311°
2026-05-05 13:19 41.24690 -8.68227 194 ft 18 kts 199°
2026-05-05 13:19 41.24567 -8.68280 199 ft 18 kts 194°
2026-05-05 13:19 41.24447 -8.68276 204 ft 17 kts 168°
2026-05-05 13:19 41.24336 -8.68247 200 ft 16 kts 170°
2026-05-05 13:20 41.24226 -8.68216 203 ft 18 kts 168°
2026-05-05 13:20 41.24092 -8.68182 208 ft 21 kts 169°
2026-05-05 13:20 41.23939 -8.68142 213 ft 24 kts 169°
2026-05-05 13:20 41.23776 -8.68099 218 ft 23 kts 168°
2026-05-05 13:21 41.23624 -8.68061 222 ft 22 kts 167°
2026-05-05 13:21 41.23569 -8.68045 223 ft 6 kts 169°
2026-05-05 13:21 41.23537 -8.68111 221 ft 16 kts 268°
2026-05-05 13:21 41.23563 -8.68166 219 ft 4 kts
2026-05-05 13:22 41.23591 -8.68174 219 ft 3 kts 345°
2026-05-05 13:22 41.23593 -8.68162 219 ft 3 kts 174°
2026-05-05 13:22 41.23580 -8.68171 219 ft 1 kts 155°
2026-05-05 13:22 41.23574 -8.68168 219 ft 0 kts 169°